{"data":{"norad_id":61206,"epoch":"2026-09-21T08:36:52.436736Z","epoch_age_seconds":117862,"freshness":"FRESH","line1":"1 61206U 24171G   26264.35894024 -.00001240  00000+0 -53883-5 0  9995","line2":"2 61206  53.1589 291.4706 0000865  71.8805 288.2307 15.69699003115134","mean_motion":15.69699003,"eccentricity":8.65e-5,"inclination_deg":53.1589,"raan_deg":291.4706,"arg_perigee_deg":71.8805,"mean_anomaly_deg":288.2307,"bstar":-5.3883e-6,"rev_number":11513,"period_min":91.737332905728,"perigee_km":359.17539187156,"apogee_km":360.34104774459,"semimajor_km":6737.8952198081,"source":"CELESTRAK","updated_at":"2026-09-22T09:00:49.339742Z"}}